Location: ?ejkovice
(49.0137°N, 14.3821°E)
Time: 17:54:39
(UTC+00:00)

Cosmos 1315 Rocket - Pass Details

Date: 23 May 2024
Orbit: 515 x 542 km, 81.2° (Epoch: 12 June)

Event Time Altitude Azimuth Distance (km) Brightness Sun altitude
Exits shadow 01:40:00 15° 246° (WSW) 1,484 4.5 -11.7°
Maximum altitude 01:42:18 24° 292° (WNW) 1,117 4.2 -11.5°
Drops below altitude 10° 01:45:33 10° 348° (NNW) 1,787 6.0 -11.1°
Sets 01:48:02 0° 2° (N) 2,688 7.3 -10.9°
